Regional Weather Roundup
Issued by NWS

Home | Current Version | Previous Version | Graphics & Text | Print | Product List | Glossary Off
Versions: 1 2 3 4 5 6 7 8 9 10 11 12 13 14 15 16 17 18 19 20 21 22 23 24 25 26 27 28 29 30 31 32 33 34 35 36 37 38 39 40 41 42 43 44 45 46 47 48 49 50

000
ASUS45 KBOU 141307
RWRCO

WEATHER ROUNDUP FOR COLORADO
NATIONAL WEATHER SERVICE DENVER/BOULDER CO
600 AM MST SUN FEB 14 2016

NOTE: "FAIR" INDICATES FEW OR NO CLOUDS BELOW 12000 FEET WITH NO
SIGNIFICANT WEATHER AND/OR OBSTRUCTIONS TO VISIBILITY.

COZ001>005-013-030-031-141400-
...NORTHWEST COLORADO...

CITY           SKY/WX    TMP DP  RH WIND       PRES   REMARKS
CRAIG          CLOUDY    12   8  84 CALM      30.15S
HAYDEN         CLOUDY    18  12  79 CALM      30.13S
MEEKER         CLOUDY    20  13  74 CALM      30.16S
MOUNT WERNER   NOT AVBL
STEAMBOAT SPGS CLOUDY    18  14  83 CALM      30.14R
WALDEN         CLOUDY    30  14  51 S10       30.07S WCI  21
$$

COZ006>008-011-141400-
...WEST CENTRAL VALLEYS...

CITY           SKY/WX    TMP DP  RH WIND       PRES   REMARKS
GRAND JUNCTION FAIR      28  25  88 CALM      30.18S
MONTROSE       FAIR      25  20  81 SE7       30.21R WCI  17
EAGLE          FAIR      21  19  93 CALM      30.19R
RIFLE          FAIR      21  17  84 S5        30.19S WCI  15
DELTA          FAIR      30  26  84 CALM      30.20S
NUCLA          FAIR      30  21  69 CALM      30.23S
$$

COZ017>023-064>068-141400-
...SOUTHWEST COLORADO...

CITY           SKY/WX    TMP DP  RH WIND       PRES   REMARKS
DURANGO        FAIR      16   9  74 NE6       30.14R WCI   7
CORTEZ         FAIR      23  18  81 NE7       30.17R WCI  15
PAGOSA SPRINGS FAIR      18  12  76 CALM      30.15S
TELLURIDE      NOT AVBL
WOLF CREEK PAS FAIR      23  -9  23 SW14      30.24R WCI  11
$$

COZ009-010-012-014-032>034-037-058>063-141400-
...CENTRAL COLORADO...

CITY           SKY/WX    TMP DP  RH WIND       PRES   REMARKS
ASPEN          FAIR      20  11  68 CALM      30.14S
BUENA VISTA    FAIR      37   7  29 W10G18    30.07F
COPPER MTN     FAIR      19  10  68 W8        30.12S WCI   9
BERTHOUD PASS  FAIR      16   5  62 NW52G69   29.97F WCI  -9
COTTONWOOD PAS FAIR      34   1  25 W30G38    30.08F WCI  20
GUNNISON       FAIR      -6 -27  34 CALM      30.25R
KREMMLING      MOCLDY    10   5  79 CALM      30.14S
LEADVILLE      FAIR      22   6  50 N12       30.09F WCI  10
MONARCH PASS   FAIR      18  10  73 MISG      30.26S
SALIDA         NOT AVBL
SUNLIGHT       MOCLDY    25  18  74 CALM      30.19R
WILKERSON PASS FAIR      21   1  42 W14G23    30.07F WCI   8
$$

COZ069>075-141400-
...SAN LUIS VALLEY/SANGRE DE CRISTO MOUNTAINS...

CITY           SKY/WX    TMP DP  RH WIND       PRES   REMARKS
ALAMOSA        FAIR      19  15  84 SW7       30.12R WCI  10
LA VETA PASS   FAIR      27   9  46 MISG      30.09S
SAGUACHE       FAIR      30  16  55 NW12      30.14R WCI  21
$$

COZ035-036-038>040-141400-
...NORTHERN COLORADO FRONT RANGE...

CITY           SKY/WX    TMP DP  RH WIND       PRES   REMARKS
DENVER INTL AP FAIR      30  22  72 SE14      29.92F WCI  19
DMNS CITY PARK   N/A     31  21  67 N3G15     29.92F
AURORA         PTCLDY    31  23  70 S8        29.93F WCI  24
FRONT RANGE AP NOT AVBL
ERIE MUNI ARPT FAIR      35  22  61 SE8       29.90F WCI  28
BOULDER MUN AP FAIR      34  23  64 NW8       29.90R WCI  27
CENTENNIAL     MOCLDY    32  19  58 SE17      29.93F WCI  21
BROOMFIELD     NOT AVBL
FORT COLLINS   FAIR      30  21  69 S5        29.91F WCI  25
LONGMONT       FAIR      34  25  69 NE3       29.91F
$$

COZ041-046-047-076>085-087-088-141400-
...PIKES PEAK/PALMER DIVIDE AND SOUTHERN FOOTHILLS...

CITY           SKY/WX    TMP DP  RH WIND       PRES   REMARKS
COLO. SPRINGS  FAIR      28  24  85 SE10      30.03F WCI  19
A. F. ACADEMY  FAIR      26  22  84 S7        30.00F WCI  18
SCHRIEVER AFB  FAIR      26  24  92 SW9       30.03F WCI  17
ELLICOTT       FAIR     N/A N/A N/A W3        30.02F
FALCON         FAIR      25  24  98 SW6       30.02S WCI  18
FORT CARSON    FAIR      30  25  82 S16       30.01S WCI  18
LIMON          FAIR      22  20  92 SW6       29.99S WCI  14
MONUMENT HILL  FAIR      27  18  69 S14       29.99F WCI  15
TRINIDAD       FAIR      24  21  88 W6        30.06F WCI  17
$$

COZ042>045-048>051-090-091-141400-
...NORTHEAST COLORADO...

CITY           SKY/WX    TMP DP  RH WIND       PRES   REMARKS
GREELEY ARPT   FAIR      28  23  80 E6        29.93F WCI  22
AKRON          FAIR      27  22  81 SW7       29.95R WCI  19
BURLINGTON     FAIR      25  19  78 NW8       29.98F WCI  16
WRAY           FAIR      29  23  78 W5        29.94F WCI  24
STERLING       MOCLDY    28  25  86 W8        29.93R WCI  20
HOLYOKE        FAIR      32  27  80 W7        29.94S WCI  26
FORT MORGAN    FAIR      26  22  86 W6        29.96F WCI  19
$$

COZ086-089-092>099-141400-
...SOUTHEAST COLORADO...

CITY           SKY/WX    TMP DP  RH WIND       PRES   REMARKS
PUEBLO         FAIR      28  22  78 NW7       30.04F WCI  21
LA JUNTA       FAIR      28  24  85 W9        30.05S WCI  19
LAMAR          FAIR      20  18  92 SW5       30.03F WCI  13
SPRINGFIELD      N/A     24  21  88 W13       30.03S WCI  12
$$



USA.gov is the U.S. government's official web portal to all federal, state and local government web resources and services.